Reflectivity
-16 -20 -20 -20 -20 -20 -20 -20 -20 -20 -20 12 10 27 7 12 -12 -18 -20 3 -20 -20 -7 16 8 3 16 1 5 10 3 5 5 13 6 10 14 16 16 -1 1 11 13
-20 -20 -20 -20 -20 -20 -20 -20 -19 -20 -20 -20 -5 3 -3 20 1 3 -11 -9 2 -20 -4 7 16 10 10 2 -4 -7 4 3 2 5 12 11 15 17 18 16 14 15 14
14 -20 -20 -20 -20 -20 -20 -20 8 -20 -4 -20 -20 -20 -20 -20 -20 -7 -15 -10 -20 -20 -20 -19 9 15 13 8 4 17 1 7 10 4 6 10 5 7 1 11 15 11 9
-6 -20 -20 -20 -20 -19 -20 -20 -20 -20 -20 -20 -20 -20 -20 -20 -20 7 -19 -20 -20 -12 -14 11 12 14 17 10 12 12 4 5 5 3 10 14 13 13 8 7 12 14 -6
11 -20 13 1 -19 -20 -11 -20 -19 -20 -20 -20 -20 -20 -20 -20 -20 3 -4 -20 -20 -20 -20 -15 -9 7 15 10 8 7 8 6 14 16 17 16 16 10 2 1 2 3 8
-20 -20 -9 -20 -5 10 7 -20 -20 -20 -20 -20 -20 -20 -20 -20 -20 -3 -18 -20 -20 -20 -20 -20 -20 -20 -17 -19 11 10 18 9 18 18 18 18 17 17 12 7 16 14 9
5 12 15 -0 -19 -10 -20 -20 -20 -20 -20 -20 -20 -20 -20 -20 -7 -20 -9 -20 -20 -20 -20 -20 -20 -20 -20 -20 -20 15 14 17 5 17 16 5 14 13 16 15 16 13 16
12 -20 -17 -18 7 -20 -20 -20 -20 -20 -20 -20 -20 -20 -20 -20 -20 -20 -20 -20 -20 -20 -20 -20 -20 -20 -20 -20 -18 -8 -0 -20 -19 -7 3 14 16 18 16 18 16 19 15
-20 -20 -11 5 -20 -20 -20 -20 -20 -20 -20 -20 -20 -20 -20 -20 -20 -20 -20 -20 -20 -20 -20 -20 -20 -20 -20 -20 -20 -20 -20 -20 -20 -5 -0 -1 -13 16 14 -20 5 17 16
-20 -20 -18 -7 -20 -20 -20 -20 -20 -20 -20 -20 -20 -20 -20 -20 -20 -20 -20 -20 -20 -20 -20 -20 -20 -20 -20 -20 -20 -20 -20 -20 -20 -20 -20 -15 2 17 19 19 18 -5 -19
11 -20 -20 5 -20 -20 -19 -20 -20 -20 -20 -20 -20 -20 -20 -20 -20 -20 -20 -20 -20 -20 -20 -20 -20 -20 -20 -20 -20 -20 -20 -20 -20 -20 -0 -20 4 -1 20 19 -18 -20 -20
17 20 -20 -20 20 -20 1 -20 -20 -20 -20 -20 -20 -8 -20 -20 -20 -20 -20 -20 -20 -20 -20 -20 -20 -20 -20 -20 -20 -20 -20 -20 -20 -20 -17 -20 -18 -12 11 12 -20 6 6
-4 23 -20 -1 12 -20 -20 -20 -20 -20 -20 -20 -20 -20 -20 -20 -20 -20 -20 -20 -20 -20 -20 -20 -20 -20 -20 -20 -20 -20 -20 -20 -20 -20 -20 -8 -20 -20 -10 8 1 -12 -4
-13 20 20 17 7 -3 -20 -20 -20 -20 -20 -20 -20 -20 -20 -20 -20 -20 -20 -20 -20 -20 -20 -20 -20 -20 -20 -20 -20 -20 -20 -20 -20 -20 -20 -20 -20 -20 -20 -20 10 -17 -20
17 -18 27 17 14 11 -20 -20 -20 -20 -20 -20 -20 -20 -20 -20 7 -20 -20 -20 -20 -20 -20 -20 -20 -20 -20 -20 -20 -20 -20 -20 -20 -20 -20 -20 -20 -20 -20 -20 -20 -16 -20
11 5 20 30 -7 -4 -20 -20 -20 -20 -20 -20 -20 -20 -20 9 9 -5 -20 -20 -20 -20 -20 -20 -20 -20 -20 -20 -20 -20 -20 -20 -20 -20 -20 -20 -20 -20 -20 -20 -20 -20 -20
19 14 12 35 35 29 -19 -20 -20 -20 -20 -15 -19 -15 6 13 28 20 -19 -20 -20 -20 -20 -20 -20 -20 -20 -20 -20 -20 -20 -20 -20 -20 -20 -20 -20 -20 -20 -20 -20 -20 -14
19 27 24 24 36 14 26 17 14 -20 -20 -4 -20 -20 -1 14 17 6 -20 -20 -20 -20 -20 -20 -20 -20 -20 -20 -20 -20 -20 -20 -20 -20 -20 -20 -20 -20 -20 -20 -20 -20 -17
34 35 23 29 27 27 36 31 15 -13 -19 -15 -16 -17 24 28 12 -13 -20 -15 -20 -20 -20 -20 -20 -20 -20 -20 -20 -20 -20 -20 -20 -20 -20 -20 -20 -20 -20 -20 -20 -20 -20
12 32 34 28 38 23 23 32 17 -12 -12 3 -3 35 19 -2 -12 4 8 2 -10 -20 -20 -20 -20 -20 -20 -20 -20 -20 -20 -20 -20 -20 -20 -20 -20 -20 -20 -20 -20 -20 -20
16 20 33 32 31 38 29 35 23 -11 1 17 35 23 -1 -8 -1 3 3 -16 -20 -20 -20 -20 -20 -20 -20 -20 -20 -20 -20 -20 -20 -20 -20 -20 -20 -20 -20 -20 -20 -20 -20
30 25 23 31 35 32 30 25 13 21 32 27 24 18 -4 13 8 -1 -20 -20 -20 -20 -20 -20 -20 -20 -20 -20 -20 -20 -20 -20 -17 -20 -20 -20 -20 -20 -20 -20 -20 -20 -20
31 31 23 30 34 35 24 23 26 33 36 33 19 7 6 -0 -15 -20 -20 -20 -20 -20 -20 -20 -20 -20 -20 -20 -20 -20 -20 -20 -20 -20 -20 -19 -20 -20 -20 -20 -20 -20 -20
27 32 32 28 28 26 14 18 31 31 23 14 9 2 -1 -20 -20 -20 -20 -20 -20 -20 -20 -20 -20 -20 -20 -20 -20 -20 -20 -20 -20 -20 -20 -20 -20 -20 -20 -20 -20 -20 -20
38 36 33 29 14 16 28 32 31 17 9 9 1 2 -12 -19 -10 -20 -20 -20 -20 -20 -20 -12 -20 -20 -20 -20 -20 -20 -20 -20 -20 -20 -20 -20 -20 -20 -20 -20 -20 -20 -20
28 33 33 32 33 25 27 25 14 12 -1 -11 -7 -13 -18 -8 -16 -20 -20 -1 -19 -20 -20 -20 -20 -20 -20 -20 -20 -20 -20 -20 -20 -20 -20 -20 -20 -20 -20 -20 -20 -20 -20
Wind_Speed
8 8 8 8 6 6 5 4 4 4 2 10 10 12 13 13 12 7 5 19 16 17 14 14 16 17 17 18 19 19 20 19 19 19 19 18 18 17 17 17 17 16 16
9 8 4 6 5 5 5 5 5 5 2 1 8 11 13 13 11 12 8 8 16 16 17 18 16 16 16 17 17 18 17 18 18 18 18 18 17 18 18 18 17 17 17
9 9 7 6 5 5 7 5 4 5 4 5 9 9 10 12 11 13 9 7 7 16 18 19 18 16 15 16 16 16 17 17 17 17 16 17 17 18 18 18 18 18 18
10 11 7 7 7 6 6 5 6 8 6 6 5 5 6 7 7 11 10 8 4 6 13 17 18 17 16 16 16 16 18 16 17 16 17 16 17 18 18 18 19 19 19
7 9 8 6 9 7 7 9 7 9 9 7 7 5 5 4 5 7 7 7 10 7 5 15 17 18 18 18 16 17 17 17 17 17 16 17 17 17 18 18 18 17 19
11 9 8 9 9 9 8 9 8 9 11 10 10 7 4 4 4 6 6 5 7 10 9 7 6 9 18 19 18 17 17 18 17 17 17 18 17 17 18 19 18 19 18
12 12 10 11 11 10 10 10 10 12 10 10 9 8 4 5 5 5 5 4 3 4 8 9 6 5 7 17 18 16 16 18 18 17 17 17 17 18 18 19 19 20 19
15 13 11 11 12 10 11 12 12 10 9 11 10 7 5 3 2 4 5 5 5 4 7 8 8 7 8 5 10 14 14 14 15 15 15 16 16 16 18 17 20 19 21
17 16 11 13 13 11 11 14 14 14 12 9 15 5 5 5 6 2 4 5 6 5 5 5 6 5 9 6 9 10 14 14 14 14 14 14 14 15 17 17 16 18 20
17 16 13 16 15 10 13 12 12 13 14 12 11 5 4 11 5 6 4 5 5 8 7 5 4 6 11 8 12 13 14 13 13 13 13 14 15 16 16 16 16 17 18
16 17 15 15 15 11 13 15 16 12 13 11 10 3 5 7 7 7 9 6 4 4 5 6 7 3 10 10 7 9 13 13 14 13 13 14 14 15 16 16 17 18 18
12 15 15 14 14 12 15 14 14 15 13 12 8 7 5 6 8 6 9 11 8 4 4 5 6 5 9 8 12 13 13 13 14 13 14 14 14 15 17 17 16 17 17
11 14 14 15 14 12 12 14 15 13 13 12 11 8 5 5 6 5 12 11 9 5 4 3 4 7 9 8 8 11 14 13 13 13 14 15 14 15 15 16 16 17 17
14 15 13 12 14 15 14 14 12 11 10 8 11 8 5 5 4 10 11 14 11 6 4 5 3 5 7 9 12 15 8 13 13 12 14 14 14 14 15 16 16 15 17
9 14 16 15 15 15 15 15 11 12 8 5 8 6 5 4 3 5 11 12 12 9 7 6 4 8 7 8 12 10 8 13 12 12 12 14 14 14 15 15 15 16 16
11 13 15 14 17 16 15 14 11 9 10 5 5 6 3 4 4 3 8 10 7 6 5 9 4 9 8 7 9 11 10 12 12 11 12 12 14 14 14 15 16 15 14
9 13 13 13 11 9 13 11 10 11 12 8 7 8 6 7 4 3 7 7 5 9 12 5 6 6 7 7 10 9 11 8 6 12 12 12 12 14 14 15 16 15 13
8 11 10 10 9 8 4 11 13 10 12 10 8 8 8 6 6 4 4 7 5 11 14 16 6 4 6 7 6 10 10 10 7 10 10 10 12 13 13 14 14 13 13
11 9 9 10 9 10 8 4 11 10 9 8 7 5 9 8 6 4 5 6 8 9 10 12 8 4 3 4 5 4 5 11 8 14 11 9 8 11 12 13 13 13 13
15 13 10 9 7 5 10 10 11 14 12 10 9 11 7 7 6 6 6 6 10 11 11 10 7 5 4 2 2 4 3 4 4 8 9 11 9 9 10 13 13 12 12
14 15 16 13 12 11 7 11 12 14 14 12 11 9 8 12 13 7 6 7 11 10 10 9 7 4 2 2 3 1 3 2 2 2 0 3 3 3 3 9 9 8 9
16 17 17 17 14 9 16 19 14 15 13 11 10 10 11 17 16 19 18 14 11 12 11 9 6 7 3 4 3 3 3 3 2 1 2 0 3 3 3 3 8 5 5
16 15 15 16 14 14 21 20 21 13 11 11 11 10 11 9 12 12 17 20 16 12 10 10 11 10 7 5 6 4 4 3 2 2 2 2 2 3 4 5 8 5 4
14 14 13 14 13 13 20 21 19 13 11 11 11 10 12 10 9 11 13 14 12 11 9 9 8 7 6 6 6 5 6 5 6 3 2 2 2 3 3 5 12 9 6
11 11 12 13 13 13 22 23 17 13 12 13 10 12 12 12 14 18 15 15 14 13 20 24 21 19 17 16 10 3 3 4 3 1 4 3 0 1 1 5 5 12 9
12 10 11 11 16 13 20 18 12 10 12 9 12 10 15 11 15 18 13 13 13 9 11 11 8 12 10 11 12 7 4 1 4 3 2 3 3 2 3 2 3 5 5
Wind_Direction
160 152 169 154 158 123 135 141 106 87 116 134 108 88 113 105 97 86 69 64 67 72 69 75 79 84 79 76 73 70 66 60 54 53 46 44 44 42 42 41 35 31 27
157 157 122 131 121 130 117 120 119 105 98 58 99 116 124 112 110 96 75 63 69 69 65 63 67 84 86 82 75 70 64 59 56 52 49 45 42 44 42 41 39 35 33
158 146 140 134 137 124 120 131 164 126 116 77 72 80 89 113 126 126 116 101 68 68 67 60 58 64 78 84 82 74 68 60 60 53 49 46 45 43 41 38 35 34 34
152 148 153 158 160 147 160 161 154 136 114 103 91 81 84 97 112 122 131 128 109 72 68 69 62 58 61 72 74 73 68 62 57 55 50 46 48 46 41 39 36 33 35
140 133 147 161 150 161 176 153 145 141 131 122 114 101 98 107 115 83 75 100 119 114 93 83 74 66 56 58 66 68 67 65 61 58 56 50 44 47 42 40 34 35 35
147 144 160 170 177 174 179 157 154 145 144 144 128 109 90 90 75 97 102 87 130 149 141 120 87 66 59 52 57 65 67 66 61 59 54 51 45 45 45 43 38 35 37
167 169 182 171 180 168 171 151 150 148 148 133 126 104 94 94 107 115 123 141 160 103 150 130 117 91 58 51 50 57 63 65 61 58 53 52 48 42 47 43 41 36 35
178 180 172 173 178 173 166 163 156 152 152 152 148 126 145 84 100 158 124 125 139 97 67 72 87 103 108 83 68 60 62 65 66 65 57 56 51 45 47 44 38 37 37
175 181 173 175 184 184 171 170 167 164 158 172 174 151 146 152 140 112 141 147 151 120 105 109 114 150 100 89 73 59 56 55 64 65 63 58 53 49 40 43 44 42 38
181 182 184 177 185 180 170 175 169 168 166 171 189 251 73 129 154 161 185 156 161 143 147 157 141 114 103 97 89 79 63 55 69 67 64 61 58 54 45 47 44 42 38
193 187 185 183 184 178 176 174 173 171 174 174 182 171 128 137 138 147 151 165 147 135 140 140 139 154 126 106 90 81 73 67 66 65 62 59 58 54 47 46 44 43 39
185 198 187 185 184 181 176 174 175 172 176 185 186 175 156 165 155 153 145 158 154 152 136 121 137 130 96 90 99 97 85 78 75 69 67 63 57 55 49 43 46 43 42
189 194 189 188 182 180 172 172 175 182 182 183 175 167 162 188 174 131 146 154 143 133 127 151 133 119 122 113 116 108 93 83 80 74 71 64 58 54 53 50 40 43 39
180 185 187 195 183 181 175 179 174 181 182 172 173 166 161 184 146 150 154 148 131 143 139 155 118 102 115 126 132 117 102 87 76 75 73 70 62 58 54 50 48 41 39
184 176 191 187 188 182 175 175 172 173 169 162 163 149 145 134 112 125 153 152 149 149 162 170 141 129 115 132 148 128 113 105 94 82 77 74 68 57 52 50 48 42 39
176 178 189 203 186 178 171 168 163 155 143 141 130 131 117 122 104 119 147 143 149 139 140 159 139 129 145 140 155 118 120 116 108 96 80 74 66 62 55 49 46 41 36
171 170 178 191 176 191 156 147 149 148 139 133 133 135 132 119 124 162 149 149 157 154 132 119 133 133 125 141 130 134 138 133 125 113 102 89 75 63 56 52 48 41 40
167 163 163 159 142 140 178 141 148 147 138 125 130 134 129 112 156 172 128 115 110 131 133 133 133 120 126 143 155 161 165 134 122 114 105 94 92 79 63 55 49 40 39
148 150 141 143 157 139 123 138 127 111 97 100 107 142 118 149 149 150 122 115 113 115 124 130 136 117 129 130 129 106 103 134 129 139 132 122 103 94 81 68 55 40 31
142 121 107 101 96 79 117 118 107 104 97 91 89 70 75 93 102 93 100 116 122 121 125 127 126 117 83 1 132 140 91 66 138 159 155 153 147 108 100 86 67 52 37
134 120 121 116 113 111 104 119 117 106 106 104 86 104 88 88 83 96 110 118 119 121 127 123 125 103 103 110 111 192 106 112 26 61 54 143 128 108 128 94 76 62 47
134 135 135 129 129 115 118 116 131 109 106 107 114 108 95 86 84 83 79 82 109 127 131 134 134 142 150 129 117 151 134 123 145 254 121 91 101 140 142 119 123 107 75
138 137 132 132 138 135 137 129 112 110 129 132 133 124 112 111 106 104 94 85 79 113 140 143 149 150 143 149 152 153 145 178 110 220 124 168 156 167 146 150 162 168 142
133 133 139 139 134 143 135 123 129 134 142 139 140 138 127 133 137 133 110 87 70 50 83 104 113 126 120 141 160 161 173 133 103 95 44 81 170 128 166 170 188 197 191
128 133 134 132 133 138 142 153 150 152 147 142 137 131 143 139 157 137 117 109 95 85 83 91 97 96 88 73 54 65 128 148 154 123 7 77 346 68 164 164 205 205 209
128 132 126 126 133 142 161 171 161 142 137 130 131 141 136 141 150 129 123 119 111 120 110 100 90 80 75 73 59 49 49 113 125 118 347 68 24 77 348 24 166 202 197